CW9769 Weather Reports


Display with metric or nautical units.
time (UTC)temp
F
wind
direction
speed
MPH
gust
MPH
rain 1hr
in
rain 24hr
in
rain mn
in
humidity
%
barometer
mb
20260905193041 77 74 5.0 10.0 0.00 0.11 0.09 77 1013.8
20260905192040 77 77 5.0 10.0 0.00 0.11 0.09 78 1013.8
20260905191008 77 81 2.0 10.0 0.00 0.11 0.09 78 1013.8
20260905190007 78 69 3.0 9.0 0.00 0.11 0.09 79 1013.9
20260905185007 79 77 4.0 9.0 0.00 0.11 0.09 77 1013.9
20260905184006 79 71 4.0 11.0 0.00 0.11 0.09 80 1013.9
20260905183005 77 93 3.0 12.0 0.00 0.11 0.09 80 1013.9
20260905181902 77 105 4.0 12.0 0.00 0.11 0.09 82 1014.2
20260905180901 77 92 5.0 11.0 0.00 0.11 0.09 82 1014.2
20260905175900 77 86 4.0 10.0 0.00 0.11 0.09 84 1014.2
20260905174859 77 102 3.0 9.0 0.00 0.12 0.09 84 1014.2
20260905173858 76 73 3.0 11.0 0.00 0.12 0.09 85 1014.2
20260905172858 75 92 5.0 11.0 0.00 0.13 0.09 87 1014.2
20260905171826 75 88 4.0 10.0 0.00 0.13 0.09 87 1014.2
20260905170825 75 97 4.0 12.0 0.00 0.13 0.09 88 1014.2
20260905165815 76 77 4.0 10.0 0.00 0.13 0.09 85 1014.2
20260905164815 77 76 2.0 7.0 0.00 0.13 0.09 84 1014.2
20260905163814 77 67 3.0 6.0 0.00 0.13 0.09 84 1014.2
20260905162813 77 54 2.0 5.0 0.00 0.13 0.09 84 1014.2
20260905161812 77 136 1.0 4.0 0.00 0.13 0.09 83 1014.6
20260905160811 77 61 2.0 3.0 0.00 0.13 0.09 86 1014.2
20260905155810 76 138 2.0 2.0 0.00 0.14 0.09 86 1014.5
20260905154809 77 153 0.0 2.0 0.00 0.14 0.09 85 1014.5
20260905153809 77 86 1.0 2.0 0.00 0.14 0.09 84 1014.5
20260905152808 77 108 1.0 3.0 0.00 0.17 0.09 84 1014.5
20260905151808 76 101 1.0 3.0 0.00 0.23 0.09 85 1014.5
20260905150807 76 94 1.0 2.0 0.00 0.33 0.09 86 1014.2
20260905145806 75 207 1.0 3.0 0.00 0.33 0.09 87 1014.1
20260905144805 75 187 2.0 3.0 0.00 0.33 0.09 90 1014.1
20260905143805 74 157 1.0 2.0 0.00 0.33 0.09 89 1014.1
20260905142804 74 110 0.0 2.0 0.00 0.33 0.09 90 1014.1
20260905141803 74 150 0.0 2.0 0.00 0.33 0.09 91 1014.1
20260905140802 74 206 2.0 3.0 0.00 0.33 0.09 91 1013.8
20260905135801 74 206 1.0 4.0 0.00 0.33 0.09 91 1013.8
20260905134801 73 189 1.0 3.0 0.00 0.34 0.09 92 1013.8
20260905133800 73 127 1.0 2.0 0.00 0.36 0.09 94 1013.8
20260905132759 72 259 0.0 2.0 0.00 0.39 0.09 96 1014.1
20260905131758 71 258 0.0 2.0 0.00 0.39 0.09 96 1014.1
20260905130726 72 223 1.0 2.0 0.00 0.41 0.09 96 1014.1
20260905125725 71 240 1.0 2.0 0.00 0.42 0.09 97 1014.1
20260905124724 71 234 0.0 0.0 0.00 0.42 0.09 97 1014.1
20260905123724 71 234 0.0 0.0 0.00 0.44 0.09 97 1014.1
20260905122723 70 234 0.0 2.0 0.00 0.44 0.09 97 1014.1
20260905121722 70 234 0.0 2.0 0.00 0.45 0.09 97 1014.1
20260905120721 70 110 1.0 2.0 0.00 0.46 0.09 97 1014.1
20260905115720 69 110 0.0 2.0 0.00 0.47 0.09 97 1014.1
20260905114720 69 110 0.0 2.0 0.00 0.48 0.09 97 1013.8
20260905113719 69 110 0.0 2.0 0.00 0.48 0.09 97 1013.5
20260905112718 69 110 0.0 0.0 0.00 0.48 0.09 97 1013.5
20260905111717 69 110 0.0 2.0 0.00 0.48 0.09 97 1013.5
20260905110645 69 110 0.0 2.0 0.00 0.48 0.09 97 1013.5
20260905105644 69 102 1.0 2.0 0.01 0.48 0.09 97 1013.9
20260905104613 69 102 1.0 2.0 0.01 0.48 0.09 97 1013.9
20260905103611 69 89 1.0 2.0 0.01 0.48 0.09 97 1014.2
20260905102610 69 51 0.0 2.0 0.01 0.48 0.09 97 1014.2
20260905101609 69 51 0.0 2.0 0.01 0.48 0.09 97 1014.2
20260905100608 69 51 1.0 3.0 0.01 0.48 0.09 97 1014.5
20260905095608 69 316 1.0 5.0 0.00 0.47 0.08 97 1014.8
20260905094607 69 279 2.0 5.0 0.00 0.47 0.08 97 1015.2
20260905093607 69 289 1.0 3.0 0.00 0.47 0.08 97 1014.8
20260905092606 69 282 2.0 3.0 0.00 0.47 0.08 97 1014.5
20260905091606 68 286 1.0 2.0 0.00 0.47 0.08 97 1014.1
20260905090605 68 286 1.0 2.0 0.00 0.47 0.08 97 1013.8
20260905085502 68 230 1.0 2.0 0.00 0.47 0.08 97 1013.5
20260905084501 68 230 1.0 2.0 0.00 0.47 0.08 97 1013.5
20260905083500 68 230 1.0 2.0 0.00 0.47 0.08 96 1013.4
20260905082459 69 230 0.0 0.0 0.00 0.47 0.08 96 1013.5
20260905081458 69 230 0.0 2.0 0.00 0.47 0.08 97 1013.1
20260905080457 69 230 1.0 2.0 0.00 0.47 0.08 97 1012.8
20260905075457 69 230 0.0 2.0 0.00 0.47 0.08 97 1013.2
20260905074456 69 230 1.0 1.0 0.00 0.47 0.08 97 1013.5
20260905073353 69 230 0.0 2.0 0.00 0.47 0.08 97 1013.1
20260905072321 69 230 0.0 2.0 0.00 0.47 0.08 96 1012.8
20260905071249 69 230 1.0 2.0 0.00 0.47 0.08 97 1012.8
20260905070248 69 230 0.0 2.0 0.00 0.47 0.08 96 1013.1
20260905065247 69 230 1.0 2.0 0.00 0.47 0.08 96 1013.0
20260905064247 69 230 0.0 1.0 0.00 0.47 0.08 96 1013.4
20260905063245 69 230 1.0 2.0 0.00 0.47 0.08 96 1013.3
20260905062244 69 230 1.0 2.0 0.00 0.47 0.08 96 1013.7
20260905061243 69 230 0.0 2.0 0.06 0.47 0.08 96 1013.7
20260905060241 70 230 2.0 2.0 0.06 0.47 0.08 96 1013.7
20260905055240 70 230 0.0 2.0 0.06 0.47 0.08 96 1014.0
20260905054239 70 214 1.0 2.0 0.06 0.47 0.08 96 1014.0
20260905053239 70 279 2.0 2.0 0.06 0.47 0.08 97 1014.4
20260905052238 70 279 1.0 2.0 0.06 0.47 0.08 97 1014.4
20260905051236 70 326 1.0 2.0 0.00 0.41 0.02 96 1014.8
20260905050204 70 326 1.0 2.0 0.02 0.41 0.02 96 1014.4
20260905045203 70 326 0.0 2.0 0.04 0.41 0.02 96 1014.5
20260905044202 70 326 0.0 2.0 0.04 0.41 0.02 96 1014.4
20260905043202 70 326 1.0 2.0 0.04 0.41 0.02 96 1014.8
20260905042201 70 11 0.0 2.0 0.04 0.41 0.02 96 1014.8
20260905041200 70 11 0.0 2.0 0.04 0.41 0.02 96 1015.1
20260905040159 69 11 1.0 2.0 0.02 0.39 0.00 96 1015.1
20260905035158 69 309 2.0 2.0 0.00 0.37 0.37 96 1015.0
20260905034158 69 309 1.0 2.0 0.00 0.37 0.37 96 1014.7
20260905033157 69 309 1.0 2.0 0.00 0.37 0.37 96 1014.6
20260905032125 69 12 0.0 0.0 0.00 0.37 0.37 96 1014.7
20260905031123 69 12 0.0 0.0 0.00 0.37 0.37 95 1014.7
20260905030051 69 12 0.0 0.0 0.00 0.37 0.37 95 1014.7
20260905025050 70 12 0.0 0.0 0.00 0.37 0.37 95 1014.7
20260905024049 70 12 0.0 0.0 0.00 0.37 0.37 95 1014.7
20260905023048 70 12 0.0 2.0 0.00 0.37 0.37 95 1014.6
20260905022017 70 12 0.0 2.0 0.00 0.37 0.37 94 1014.6
20260905021016 70 12 2.0 2.0 0.00 0.37 0.37 94 1014.6
20260905020015 71 12 1.0 2.0 0.00 0.37 0.37 94 1014.7
20260905014944 71 12 0.0 0.0 0.00 0.37 0.37 94 1014.7
20260905013943 71 12 0.0 0.0 0.00 0.37 0.37 94 1014.7
20260905012942 71 12 0.0 0.0 0.00 0.37 0.37 94 1014.7
20260905011941 71 12 0.0 0.0 0.00 0.37 0.37 94 1014.7
20260905010940 72 12 0.0 0.0 0.00 0.37 0.37 94 1014.7
20260905005939 72 12 0.0 0.0 0.00 0.37 0.37 93 1014.7
20260905004938 72 12 0.0 1.0 0.00 0.37 0.37 93 1014.7
20260905003937 72 12 1.0 1.0 0.00 0.37 0.37 91 1014.7
20260905002906 73 12 0.0 2.0 0.00 0.37 0.37 91 1014.4
20260905001905 74 12 0.0 2.0 0.00 0.37 0.37 90 1014.4
20260905000904 75 12 1.0 2.0 0.00 0.37 0.37 90 1014.4
20260904235903 76 12 0.0 2.0 0.00 0.37 0.37 88 1014.8
20260904234902 77 12 1.0 2.0 0.00 0.37 0.37 87 1014.8
20260904233901 78 287 0.0 2.0 0.00 0.37 0.37 85 1014.5
20260904232900 78 287 2.0 2.0 0.00 0.38 0.37 84 1014.5
20260904231859 78 287 0.0 3.0 0.00 0.39 0.37 83 1014.9
20260904230858 79 287 1.0 3.0 0.00 0.42 0.37 82 1015.2
20260904225858 79 282 2.0 2.0 0.00 0.42 0.37 83 1014.9
20260904224856 78 281 1.0 3.0 0.00 0.47 0.37 86 1014.5
20260904223855 77 270 1.0 2.0 0.00 0.47 0.37 86 1014.5
20260904222854 77 51 1.0 2.0 0.00 0.55 0.37 87 1013.8
20260904221853 77 331 1.0 2.0 0.00 1.04 0.37 86 1014.5
20260904220852 77 330 1.0 2.0 0.00 1.23 0.37 85 1014.5
20260904215851 77 324 1.0 2.0 0.00 1.23 0.37 85 1014.5
20260904214850 77 308 2.0 4.0 0.00 1.23 0.37 83 1014.1
20260904213849 77 4 1.0 4.0 0.00 1.23 0.37 84 1013.8
20260904212816 77 16 2.0 3.0 0.00 1.23 0.37 84 1013.8
20260904211815 77 227 2.0 3.0 0.00 1.23 0.37 83 1013.8
20260904210815 77 229 1.0 2.0 0.00 1.23 0.37 83 1013.5
20260904205814 77 202 1.0 3.0 0.00 1.23 0.37 82 1013.5
20260904204813 77 215 2.0 3.0 0.00 1.23 0.37 83 1013.1
20260904203812 77 212 1.0 4.0 0.00 1.23 0.37 86 1013.1
20260904202811 77 224 1.0 5.0 0.00 1.23 0.37 84 1012.8
20260904201739 77 198 3.0 7.0 0.00 1.23 0.37 82 1012.8
20260904200738 78 227 4.0 7.0 0.00 1.23 0.37 82 1013.1
20260904195738 78 217 2.0 6.0 0.00 1.23 0.37 81 1013.5
20260904194736 78 258 3.0 6.0 0.00 1.23 0.37 81 1013.8
20260904193735 78 276 2.0 4.0 0.00 1.23 0.37 83 1014.2